Location: Atherton
(17.2661°S, 145.4859°E)
Time: 19:02:29
(UTC+10:00)

Hubble Space Telescope - Pass Details

Date: 08 February 2026
Orbit: 476 x 479 km, 28.5° (Epoch: 9 March)

Event Time Altitude Azimuth Distance (km) Brightness Sun altitude
Exits shadow 04:48:26 36° 233° (SW) 772 1.3 -19.0°
Maximum altitude 04:49:51 74° 158° (SSE) 503 0.6 -18.7°
Drops below altitude 10° 04:53:38 10° 71° (ENE) 1,648 3.9 -17.9°
Sets 04:55:50 0° 69° (ENE) 2,524 4.9 -17.4°
